Tacoma, WA

10:17 AM PDT on April 24, 2017 (GMT -0700)
McChord Air Force Base

Weather History for KTCM - November, 2012

Change the Weather History Date:

Tuesday, November 6, 2012

  Actual Average Record
Temperature  
Mean Temperature 48 °F -  
Max Temperature 56 °F 52 °F 69 °F (1999)
Min Temperature 39 °F 35 °F 19 °F (2003)
Degree Days  
Heating Degree Days 18    
Moisture  
Dew Point 46 °F    
Average Humidity 96    
Maximum Humidity 100    
Minimum Humidity 82    
Precipitation  
Precipitation 0.02 in - - ()
Sea Level Pressure  
Sea Level Pressure 30.05 in    
Wind  
Wind Speed 3 mph (SSW)    
Max Wind Speed 14 mph    
Max Gust Speed 17 mph    
Visibility 6 miles    
Events Fog , Rain    
Averages and records for this station are not official NWS values.
T = Trace of Precipitation, MM = Missing Value Source: NWS Daily Summary

Daily Weather History Graph

Daily Weather History Graph

Search for Another Location

Airport or City:

Trip Planner

Search our weather history database for the weather conditions in past years. The results will help you decide how hot, cold, wet, or windy it might be!

Date:

Astronomy

Nov. 06, 2012 Rise Set
Actual Time 7:01 AM PST 4:45 PM PST
Civil Twilight 6:28 AM PST 5:17 PM PST
Nautical Twilight 5:52 AM PST 5:54 PM PST
Astronomical Twilight 5:16 AM PST 6:29 PM PST
Moon 11:35 PM PST (11/6) 12:52 PM PST (11/6)
Length of Visible Light 10h 48m
Length of Day
9h 44m
Waning Gibbous, 52% of the Moon is Illuminated
Nov 6
Waning Gibbous
Nov 6
Last Quarter
Nov 13
New
Nov 20
First Quarter
Nov 28
Full

Hourly Weather History & Observations

Time (PST) Temp. Windchill Dew Point Humidity Pressure Visibility Wind Dir Wind Speed Gust Speed Precip Events Conditions
12:58 AM 42.4 °F - 42.1 °F 99% 30.17 in 10.0 mi Calm Calm - N/A   Scattered Clouds
1:58 AM 41.5 °F - 41.4 °F 99% 30.15 in 7.0 mi South 2.3 mph - N/A   Clear
2:23 AM 41.0 °F - 41.0 °F 100% 30.12 in 2.5 mi South 2.3 mph - N/A   Clear
2:33 AM 41.0 °F - 41.0 °F 100% 30.12 in 4.0 mi South 2.3 mph - N/A   Clear
2:58 AM 39.6 °F - 39.4 °F 99% 30.13 in 9.0 mi South 2.3 mph - N/A   Clear
3:43 AM 39.2 °F - 39.2 °F 100% 30.10 in 4.0 mi South 1.2 mph - N/A   Partly Cloudy
3:58 AM 41.0 °F - 41.0 °F 100% 30.12 in 8.0 mi Calm Calm - N/A   Mostly Cloudy
4:08 AM 41.0 °F - 41.0 °F 100% 30.10 in 6.0 mi Calm Calm - N/A   Mostly Cloudy
4:18 AM 41.0 °F - 41.0 °F 100% 30.09 in 2.5 mi South 2.3 mph - N/A   Overcast
4:23 AM 41.0 °F 39.0 °F 41.0 °F 100% 30.09 in 1.0 mi South 3.5 mph - N/A   Mist
4:28 AM 41.0 °F 39.0 °F 41.0 °F 100% 30.09 in 0.8 mi South 3.5 mph - N/A   Mist
4:33 AM 42.8 °F 40.1 °F 41.0 °F 93% 30.09 in 0.8 mi South 4.6 mph - N/A   Mist
4:38 AM 42.8 °F - 42.8 °F 100% 30.09 in 0.8 mi SSE 2.3 mph - N/A   Mist
4:43 AM 42.8 °F - 41.0 °F 93% 30.09 in 1.2 mi Calm Calm - N/A   Overcast
4:58 AM 42.4 °F - 42.1 °F 99% 30.11 in 1.2 mi SSE 2.3 mph - N/A   Overcast
5:03 AM 42.8 °F 41.1 °F 42.8 °F 100% 30.08 in 1.0 mi SSE 3.5 mph - N/A   Mist
5:08 AM 42.8 °F 41.1 °F 42.8 °F 100% 30.08 in 1.0 mi SSE 3.5 mph - N/A   Mist
5:38 AM 42.8 °F - 42.8 °F 100% 30.07 in 0.8 mi South 2.3 mph - N/A   Mist
5:48 AM 44.6 °F - 42.8 °F 93% 30.07 in 0.5 mi South 2.3 mph - N/A Fog Fog
5:53 AM 44.6 °F 43.1 °F 42.8 °F 93% 30.07 in 0.5 mi South 3.5 mph - N/A Fog Fog
5:58 AM 44.6 °F - 44.6 °F 100% 30.09 in 0.5 mi South 2.3 mph - N/A Fog Fog
6:18 AM 44.6 °F - 42.8 °F 93% 30.06 in 0.5 mi Calm Calm - N/A Fog Fog
6:23 AM 44.6 °F - 42.8 °F 93% 30.06 in 0.5 mi SSW 1.2 mph - N/A Fog Fog
6:28 AM 44.6 °F - 42.8 °F 93% 30.06 in 0.5 mi SSW 2.3 mph - N/A Fog Fog
6:33 AM 44.6 °F - 42.8 °F 93% 30.05 in 0.5 mi SSW 2.3 mph - N/A Fog Fog
6:38 AM 44.6 °F - 42.8 °F 93% 30.06 in 0.8 mi SW 2.3 mph - N/A   Mist
6:43 AM 42.8 °F - 42.8 °F 100% 30.05 in 1.2 mi SW 2.3 mph - N/A   Overcast
6:48 AM 42.8 °F - 42.8 °F 100% 30.05 in 4.0 mi SSW 2.3 mph - N/A   Overcast
6:58 AM 43.7 °F - 43.5 °F 99% 30.07 in 5.0 mi Calm Calm - N/A   Overcast
7:03 AM 44.6 °F - 42.8 °F 93% 30.05 in 4.0 mi South 1.2 mph - N/A   Overcast
7:08 AM 44.6 °F - 42.8 °F 93% 30.06 in 2.5 mi South 2.3 mph - N/A   Overcast
7:13 AM 42.8 °F - 42.8 °F 100% 30.06 in 1.0 mi SSE 1.2 mph - N/A   Mist
7:18 AM 42.8 °F - 42.8 °F 100% 30.05 in 0.5 mi Calm Calm - N/A Fog Fog
7:28 AM 44.6 °F - 42.8 °F 93% 30.06 in 1.0 mi SSW 2.3 mph - N/A   Mostly Cloudy
7:38 AM 44.6 °F - 44.6 °F 100% 30.06 in 0.8 mi SSW 2.3 mph - N/A   Mist
7:53 AM 44.6 °F - 44.6 °F 100% 30.06 in 0.5 mi South 2.3 mph - N/A Fog Fog
7:58 AM 44.6 °F - 44.6 °F 100% 30.08 in 0.8 mi SSW 2.3 mph - N/A   Mist
8:03 AM 44.6 °F - 44.6 °F 100% 30.06 in 1.0 mi South 2.3 mph - N/A   Mist
8:08 AM 44.6 °F 43.1 °F 44.6 °F 100% 30.06 in 1.5 mi South 3.5 mph - N/A   Overcast
8:13 AM 44.6 °F 43.1 °F 44.6 °F 100% 30.05 in 1.8 mi South 3.5 mph - N/A   Overcast
8:18 AM 44.6 °F 42.2 °F 44.6 °F 100% 30.05 in 0.8 mi South 4.6 mph - N/A   Mist
8:23 AM 44.6 °F 43.1 °F 44.6 °F 100% 30.05 in 0.5 mi South 3.5 mph - N/A Fog Fog
8:28 AM 44.6 °F 43.1 °F 44.6 °F 100% 30.05 in 0.5 mi South 3.5 mph - N/A Fog Fog
8:33 AM 44.6 °F 43.1 °F 44.6 °F 100% 30.05 in 0.5 mi South 3.5 mph - N/A Fog Fog
8:38 AM 44.6 °F 43.1 °F 44.6 °F 100% 30.05 in 1.0 mi South 3.5 mph - N/A   Mist
8:43 AM 44.6 °F 43.1 °F 44.6 °F 100% 30.05 in 1.5 mi SSE 3.5 mph - N/A   Overcast
8:48 AM 44.6 °F - 44.6 °F 100% 30.05 in 2.0 mi South 2.3 mph - N/A   Overcast
8:58 AM 44.6 °F - 44.6 °F 100% 30.07 in 1.5 mi South 2.3 mph - N/A   Overcast
9:23 AM 44.6 °F 42.2 °F 44.6 °F 100% 30.03 in 2.0 mi SE 4.6 mph - N/A   Overcast
9:28 AM 44.6 °F - 44.6 °F 100% 30.03 in 3.0 mi Variable 2.3 mph - N/A   Overcast
9:48 AM 46.4 °F - 44.6 °F 93% 30.03 in 9.0 mi WSW 2.3 mph - N/A   Overcast
9:58 AM 45.9 °F - 45.7 °F 99% 30.05 in 10.0 mi SW 2.3 mph - N/A   Overcast
10:58 AM 48.0 °F - 47.7 °F 99% 30.04 in 10.0 mi WSW 3.5 mph - N/A   Overcast
11:23 AM 50.0 °F - 50.0 °F 100% 30.01 in 10.0 mi SW 5.8 mph - N/A   Overcast
11:33 AM 50.0 °F - 50.0 °F 100% 30.00 in 10.0 mi SSW 4.6 mph - N/A   Scattered Clouds
11:58 AM 52.5 °F - 52.3 °F 99% 30.00 in 10.0 mi South 5.8 mph - N/A   Partly Cloudy
12:58 PM 55.9 °F - 50.4 °F 82% 30.00 in 10.0 mi WNW 4.6 mph - N/A   Mostly Cloudy
1:38 PM 55.4 °F - 51.8 °F 88% 29.99 in 10.0 mi West 5.8 mph - N/A   Mostly Cloudy
1:58 PM 55.4 °F - 51.8 °F 88% 30.01 in 10.0 mi West 4.6 mph - N/A   Overcast
2:03 PM 55.4 °F - 51.8 °F 88% 29.99 in 10.0 mi WSW 4.6 mph - N/A   Overcast
2:08 PM 55.4 °F - 51.8 °F 88% 29.99 in 10.0 mi WSW 4.6 mph - N/A   Overcast
2:58 PM 56.8 °F - 52.5 °F 85% 30.02 in 10.0 mi SSW 5.8 mph - N/A   Overcast
3:18 PM 55.4 °F - 53.6 °F 94% 30.00 in 6.0 mi SW 8.1 mph - N/A   Overcast
3:19 PM 55.4 °F - 53.6 °F 94% 30.00 in 5.0 mi SW 8.1 mph - N/A Rain Light Rain
3:40 PM 55.4 °F - 53.6 °F 94% 30.01 in 10.0 mi SW 6.9 mph - N/A   Overcast
3:58 PM 55.6 °F - 52.7 °F 90% 30.02 in 10.0 mi SSW 8.1 mph - 0.01 in   Overcast
4:08 PM 55.4 °F - 51.8 °F 88% 30.00 in 10.0 mi SSW 10.4 mph 17.3 mph N/A   Overcast
4:18 PM 55.4 °F - 51.8 °F 88% 30.00 in 10.0 mi SSW 10.4 mph - N/A   Overcast
4:58 PM 55.4 °F - 53.6 °F 94% 30.02 in 10.0 mi SSW 10.4 mph - N/A   Overcast
5:18 PM 55.4 °F - 51.8 °F 88% 29.99 in 10.0 mi South 9.2 mph - N/A   Overcast
5:23 PM 55.4 °F - 51.8 °F 88% 29.99 in 10.0 mi South 9.2 mph - N/A   Overcast
5:24 PM 55.4 °F - 51.8 °F 88% 29.99 in 10.0 mi South 9.2 mph - N/A Rain Light Rain
5:58 PM 54.3 °F - 52.3 °F 93% 30.01 in 10.0 mi South 11.5 mph - 0.00 in Rain Light Rain
6:14 PM 53.6 °F - 51.8 °F 94% 29.99 in 10.0 mi SSW 13.8 mph - N/A   Overcast
6:58 PM 54.0 °F - 50.5 °F 88% 30.02 in 10.0 mi SSW 11.5 mph - 0.01 in   Mostly Cloudy
7:18 PM 53.6 °F - 51.8 °F 94% 30.01 in 10.0 mi SSW 9.2 mph - N/A   Mostly Cloudy
7:26 PM 53.6 °F - 51.8 °F 94% 30.02 in 10.0 mi SSW 10.4 mph - N/A Rain Light Rain
7:35 PM 53.6 °F - 51.8 °F 94% 30.02 in 10.0 mi SW 11.5 mph - N/A   Overcast
7:50 PM 53.6 °F - 50.0 °F 88% 30.03 in 10.0 mi SW 11.5 mph - N/A   Overcast
7:55 PM 53.6 °F - 50.0 °F 88% 30.03 in 10.0 mi SW 9.2 mph - N/A   Overcast
7:58 PM 53.6 °F - 50.0 °F 88% 30.05 in 10.0 mi SSW 6.9 mph - 0.00 in   Mostly Cloudy
8:08 PM 51.8 °F - 50.0 °F 94% 30.03 in 10.0 mi SSW 8.1 mph - N/A   Mostly Cloudy
8:23 PM 51.8 °F - 50.0 °F 94% 30.03 in 10.0 mi South 9.2 mph - N/A   Mostly Cloudy
8:53 PM 50.0 °F - 50.0 °F 100% 30.04 in 10.0 mi South 8.1 mph - N/A   Mostly Cloudy
8:58 PM 50.4 °F - 49.3 °F 96% 30.06 in 10.0 mi South 9.2 mph - N/A   Scattered Clouds
9:58 PM 47.5 °F - 47.3 °F 99% 30.09 in 10.0 mi South 6.9 mph - N/A   Scattered Clouds
10:13 PM 48.2 °F - 48.2 °F 100% 30.07 in 10.0 mi South 5.8 mph - N/A   Mostly Cloudy
10:23 PM 48.2 °F - 48.2 °F 100% 30.07 in 10.0 mi South 8.1 mph - N/A   Mostly Cloudy
10:28 PM 48.2 °F - 48.2 °F 100% 30.07 in 10.0 mi South 6.9 mph - N/A   Mostly Cloudy
10:33 PM 48.2 °F - 48.2 °F 100% 30.07 in 10.0 mi South 6.9 mph - N/A   Mostly Cloudy
10:48 PM 48.2 °F - 48.2 °F 100% 30.07 in 10.0 mi South 8.1 mph - N/A   Mostly Cloudy
10:58 PM 48.6 °F - 48.4 °F 99% 30.09 in 10.0 mi South 6.9 mph - N/A   Overcast
11:58 PM 46.8 °F - 46.4 °F 99% 30.09 in 10.0 mi South 9.2 mph - N/A   Clear